EWG52Z EKCH-EDDL

Flight info

Callsign EWG52Z
Flight time 0h 59m
Altitude 38000
Route NEXEN T503 GIMRU DCT MICOS DCT KEGAB DCT DENOL/N0387F260 T851 HALME
Aircraft A319/M-SDE3FGHIRWY/LB1

Departure

Time 2026-05-04 17:10
Airport Copenhagen Kastrup Airport (EKCH)

Arrival

Time 2026-05-04 18:10
Airport Düsseldorf Airport (EDDL)
Time Latitude Longitude Altitude Speed Heading
2026-05-04 16:41 55.62523 12.65685 19 ft 0 kts
2026-05-04 16:55 55.62489 12.65685 18 ft 2 kts
2026-05-04 16:55 55.62459 12.65692 18 ft 2 kts 327°
2026-05-04 16:56 55.62443 12.65735 17 ft 2 kts 272°
2026-05-04 16:56 55.62444 12.65765 17 ft 0 kts 270°
2026-05-04 17:00 55.62441 12.65399 18 ft 12 kts 269°
2026-05-04 17:00 55.62272 12.65164 17 ft 12 kts 240°
2026-05-04 17:01 55.62347 12.64877 16 ft 13 kts 303°
2026-05-04 17:01 55.62355 12.64620 16 ft 12 kts 304°
2026-05-04 17:02 55.62370 12.64578 16 ft 0 kts 303°
2026-05-04 17:02 55.62391 12.64510 16 ft 7 kts 279°
2026-05-04 17:03 55.62352 12.64432 15 ft 10 kts 197°
2026-05-04 17:03 55.62272 12.64393 15 ft 12 kts 195°
2026-05-04 17:03 55.62095 12.64257 15 ft 15 kts 205°
2026-05-04 17:04 55.61905 12.64096 18 ft 15 kts 207°
2026-05-04 17:04 55.61809 12.64073 20 ft 1 kts 177°
2026-05-04 17:05 55.61761 12.64077 20 ft 5 kts 177°
2026-05-04 17:05 55.61750 12.64079 20 ft 0 kts 176°
2026-05-04 17:08 55.61700 12.64085 20 ft 7 kts 176°
2026-05-04 17:08 55.61634 12.64078 20 ft 10 kts 200°
2026-05-04 17:09 55.61602 12.64037 20 ft 0 kts 221°
2026-05-04 17:10 55.61531 12.63926 20 ft 47 kts 222°
2026-05-04 17:10 55.59412 12.60719 931 ft 170 kts 224°
2026-05-04 17:11 55.58497 12.59411 1774 ft 172 kts 224°
2026-05-04 17:11 55.57592 12.58052 2510 ft 176 kts 226°
2026-05-04 17:11 55.55637 12.55074 3671 ft 206 kts 219°
2026-05-04 17:12 55.54341 12.53724 4223 ft 227 kts 216°
2026-05-04 17:12 55.51510 12.50366 5456 ft 263 kts 219°
2026-05-04 17:13 55.46658 12.44288 7408 ft 305 kts 219°
2026-05-04 17:14 55.41148 12.37517 9338 ft 342 kts 218°
2026-05-04 17:14 55.39148 12.35080 10005 ft 352 kts 218°
2026-05-04 17:14 55.35101 12.30166 11590 ft 359 kts 218°
2026-05-04 17:15 55.33068 12.27702 12353 ft 362 kts 218°
2026-05-04 17:15 55.28877 12.22628 13819 ft 369 kts 218°
2026-05-04 17:16 55.24645 12.17519 15197 ft 376 kts 218°
2026-05-04 17:16 55.18136 12.09573 17109 ft 386 kts 219°
2026-05-04 17:17 55.15987 12.06812 17701 ft 389 kts 219°
2026-05-04 17:17 55.09387 11.98341 19360 ft 398 kts 219°
2026-05-04 17:18 55.07141 11.95474 19877 ft 401 kts 219°
2026-05-04 17:18 55.02602 11.89700 20902 ft 406 kts 219°
2026-05-04 17:19 54.98027 11.83900 21873 ft 411 kts 219°
2026-05-04 17:19 54.93391 11.78040 22775 ft 416 kts 220°
2026-05-04 17:20 54.88695 11.72119 23615 ft 421 kts 220°
2026-05-04 17:20 54.83958 11.66167 24460 ft 425 kts 220°
2026-05-04 17:20 54.81564 11.63165 24889 ft 426 kts 220°
2026-05-04 17:21 54.76751 11.57148 25700 ft 429 kts 220°
2026-05-04 17:21 54.71898 11.51096 26424 ft 431 kts 220°
2026-05-04 17:22 54.69496 11.48109 26816 ft 431 kts 220°
2026-05-04 17:22 54.67080 11.45110 27597 ft 422 kts 220°
2026-05-04 17:23 54.60249 11.36658 30337 ft 389 kts 221°
2026-05-04 17:23 54.58107 11.34014 31120 ft 380 kts 220°
2026-05-04 17:23 54.53783 11.28685 31804 ft 385 kts 220°
2026-05-04 17:24 54.51574 11.26009 32071 ft 390 kts 219°
2026-05-04 17:24 54.44688 11.18481 33233 ft 392 kts 217°
2026-05-04 17:25 54.42402 11.15999 33633 ft 391 kts 217°
2026-05-04 17:25 54.37835 11.11034 34369 ft 391 kts 217°
2026-05-04 17:26 54.33260 11.06061 35021 ft 391 kts 217°
2026-05-04 17:26 54.26347 10.98569 35714 ft 393 kts 217°
2026-05-04 17:27 54.21746 10.93610 35950 ft 394 kts 217°
2026-05-04 17:28 54.12508 10.83696 35968 ft 394 kts 217°
2026-05-04 17:29 54.05541 10.76245 36305 ft 395 kts 217°
2026-05-04 17:29 53.98574 10.68825 36877 ft 398 kts 217°
2026-05-04 17:30 53.91493 10.61310 37409 ft 403 kts 216°
2026-05-04 17:31 53.86723 10.56271 37754 ft 406 kts 216°
2026-05-04 17:31 53.79516 10.48682 37974 ft 409 kts 216°
2026-05-04 17:32 53.74701 10.43632 37961 ft 409 kts 216°
2026-05-04 17:33 53.65034 10.33528 37986 ft 409 kts 215°
2026-05-04 17:34 53.55412 10.23525 37973 ft 409 kts 215°
2026-05-04 17:35 53.43329 10.11037 37973 ft 408 kts 215°
2026-05-04 17:36 53.38479 10.06049 37970 ft 408 kts 215°
2026-05-04 17:36 53.33668 10.01113 37975 ft 407 kts 215°
2026-05-04 17:37 53.28838 9.96173 37971 ft 407 kts 215°
2026-05-04 17:37 53.24013 9.91252 37970 ft 408 kts 215°
2026-05-04 17:38 53.19207 9.86361 37969 ft 407 kts 215°
2026-05-04 17:38 53.14380 9.81461 37975 ft 407 kts 215°
2026-05-04 17:39 53.07178 9.74173 37963 ft 407 kts 214°
2026-05-04 17:39 53.02317 9.69271 37971 ft 406 kts 215°
2026-05-04 17:40 52.97511 9.64441 37959 ft 405 kts 215°
2026-05-04 17:40 52.92696 9.59611 37971 ft 404 kts 215°
2026-05-04 17:41 52.87880 9.54793 37961 ft 404 kts 215°
2026-05-04 17:41 52.83109 9.50030 37954 ft 404 kts 215°
2026-05-04 17:42 52.78303 9.45241 37962 ft 404 kts 215°
2026-05-04 17:42 52.73504 9.40469 37961 ft 403 kts 215°
2026-05-04 17:43 52.68732 9.35737 37955 ft 402 kts 214°
2026-05-04 17:43 52.63948 9.31007 37955 ft 403 kts 214°
2026-05-04 17:44 52.59136 9.26258 37509 ft 403 kts 214°
2026-05-04 17:44 52.56763 9.23923 37051 ft 399 kts 214°
2026-05-04 17:44 52.54385 9.21589 36601 ft 397 kts 214°
2026-05-04 17:45 52.52028 9.19276 36192 ft 394 kts 214°
2026-05-04 17:45 52.49709 9.17003 35773 ft 391 kts 214°
2026-05-04 17:45 52.47390 9.14729 35349 ft 388 kts 214°
2026-05-04 17:45 52.45063 9.12453 34916 ft 385 kts 214°
2026-05-04 17:46 52.42793 9.10236 34386 ft 383 kts 214°
2026-05-04 17:46 52.40522 9.08014 33844 ft 380 kts 214°
2026-05-04 17:46 52.38244 9.05787 33301 ft 381 kts 214°
2026-05-04 17:46 52.35978 9.03575 32756 ft 379 kts 214°
2026-05-04 17:47 52.33732 9.01391 32213 ft 376 kts 213°
2026-05-04 17:47 52.31492 8.99215 31667 ft 374 kts 213°
2026-05-04 17:47 52.29268 8.97055 31121 ft 372 kts 213°
2026-05-04 17:47 52.27054 8.94911 30576 ft 370 kts 213°
2026-05-04 17:48 52.24870 8.92794 30029 ft 368 kts 213°
2026-05-04 17:48 52.22666 8.90665 29469 ft 366 kts 213°
2026-05-04 17:48 52.20504 8.88576 28931 ft 364 kts 212°
2026-05-04 17:48 52.18322 8.86472 28381 ft 361 kts 212°
2026-05-04 17:49 52.16165 8.84395 27851 ft 358 kts 212°
2026-05-04 17:49 52.14055 8.82364 27405 ft 357 kts 212°
2026-05-04 17:49 52.11896 8.80286 26936 ft 356 kts 212°
2026-05-04 17:49 52.09786 8.78260 26476 ft 354 kts 212°
2026-05-04 17:50 52.07684 8.76244 26024 ft 352 kts 212°
2026-05-04 17:50 52.05575 8.74201 25809 ft 351 kts 213°
2026-05-04 17:50 52.03589 8.71870 25589 ft 351 kts 220°
2026-05-04 17:50 52.01817 8.69178 25372 ft 350 kts 230°
2026-05-04 17:51 52.00602 8.65775 25155 ft 352 kts 249°
2026-05-04 17:51 51.99829 8.62021 25026 ft 353 kts 250°
2026-05-04 17:51 51.99052 8.58254 24953 ft 353 kts 249°
2026-05-04 17:51 51.98264 8.54475 24955 ft 353 kts 249°
2026-05-04 17:52 51.97469 8.50688 24949 ft 353 kts 250°
2026-05-04 17:52 51.96672 8.46911 24952 ft 353 kts 249°
2026-05-04 17:52 51.95881 8.43172 24950 ft 352 kts 249°
2026-05-04 17:52 51.95078 8.39392 24944 ft 353 kts 249°
2026-05-04 17:53 51.94287 8.35673 24947 ft 353 kts 249°
2026-05-04 17:53 51.93474 8.31860 24949 ft 352 kts 248°
2026-05-04 17:53 51.92674 8.28107 24949 ft 352 kts 248°
2026-05-04 17:53 51.91871 8.24360 24950 ft 352 kts 248°
2026-05-04 17:54 51.91066 8.20612 24950 ft 352 kts 249°
2026-05-04 17:54 51.90270 8.16890 24946 ft 352 kts 248°
2026-05-04 17:54 51.89452 8.13099 24946 ft 352 kts 248°
2026-05-04 17:54 51.88651 8.09381 24950 ft 352 kts 248°
2026-05-04 17:55 51.87848 8.05663 24949 ft 353 kts 248°
2026-05-04 17:55 51.87036 8.01906 24951 ft 353 kts 248°
2026-05-04 17:55 51.86222 7.98150 24954 ft 353 kts 248°
2026-05-04 17:55 51.85413 7.94426 24949 ft 353 kts 248°
2026-05-04 17:56 51.84593 7.90655 24956 ft 353 kts 249°
2026-05-04 17:56 51.83776 7.86912 24877 ft 355 kts 249°
2026-05-04 17:56 51.82961 7.83179 24391 ft 353 kts 248°
2026-05-04 17:56 51.82148 7.79458 23937 ft 350 kts 248°
2026-05-04 17:57 51.81365 7.75885 23503 ft 349 kts 248°
2026-05-04 17:57 51.80591 7.72320 23077 ft 348 kts 249°
2026-05-04 17:57 51.79868 7.68620 22639 ft 347 kts 251°
2026-05-04 17:57 51.79165 7.64876 22205 ft 346 kts 251°
2026-05-04 17:58 51.78474 7.61205 21771 ft 344 kts 251°
2026-05-04 17:58 51.77774 7.57513 21332 ft 342 kts 251°
2026-05-04 17:58 51.77078 7.53863 20896 ft 341 kts 251°
2026-05-04 17:58 51.76377 7.50204 20463 ft 339 kts 251°
2026-05-04 17:59 51.75685 7.46601 20034 ft 337 kts 251°
2026-05-04 17:59 51.74986 7.42980 19602 ft 336 kts 251°
2026-05-04 17:59 51.72807 7.36573 18725 ft 330 kts 219°
2026-05-04 18:00 51.70835 7.34624 18294 ft 329 kts 205°
2026-05-04 18:00 51.68765 7.33085 17868 ft 327 kts 203°
2026-05-04 18:00 51.66688 7.31622 17442 ft 325 kts 203°
2026-05-04 18:00 51.64615 7.30182 17015 ft 324 kts 203°
2026-05-04 18:01 51.62572 7.28765 16599 ft 323 kts 202°
2026-05-04 18:01 51.60397 7.27799 16159 ft 322 kts 187°
2026-05-04 18:01 51.58171 7.27483 15499 ft 329 kts 184°
2026-05-04 18:02 51.53479 7.27123 14176 ft 340 kts 183°
2026-05-04 18:02 51.51138 7.26971 13748 ft 337 kts 183°
2026-05-04 18:02 51.48790 7.26824 13308 ft 334 kts 183°
2026-05-04 18:02 51.46501 7.26691 12882 ft 331 kts 183°
2026-05-04 18:03 51.44215 7.26569 12450 ft 326 kts 183°
2026-05-04 18:03 51.41985 7.26375 11708 ft 317 kts 191°
2026-05-04 18:03 51.39981 7.25192 10659 ft 313 kts 214°
2026-05-04 18:03 51.38482 7.22779 9829 ft 302 kts 239°
2026-05-04 18:04 51.37831 7.19677 9287 ft 287 kts 264°
2026-05-04 18:04 51.37848 7.16585 8817 ft 274 kts 271°
2026-05-04 18:04 51.39331 7.11228 7352 ft 279 kts 316°
2026-05-04 18:05 51.40884 7.09348 6642 ft 277 kts 322°
2026-05-04 18:05 51.42382 7.07506 5888 ft 273 kts 308°
2026-05-04 18:05 51.43270 7.04951 5144 ft 263 kts 281°
2026-05-04 18:05 51.43265 7.02130 4402 ft 253 kts 251°
2026-05-04 18:06 51.41141 6.98308 3452 ft 221 kts 214°
2026-05-04 18:06 51.39890 6.96997 3159 ft 210 kts 213°
2026-05-04 18:06 51.38716 6.95732 2942 ft 198 kts 217°
2026-05-04 18:07 51.37707 6.94281 2668 ft 191 kts 226°
2026-05-04 18:07 51.36856 6.92697 2437 ft 182 kts 231°
2026-05-04 18:07 51.36092 6.91088 2238 ft 181 kts 232°
2026-05-04 18:07 51.35346 6.89494 1980 ft 181 kts 232°
2026-05-04 18:08 51.34581 6.87883 1721 ft 180 kts 232°
2026-05-04 18:08 51.33831 6.86313 1466 ft 171 kts 232°
2026-05-04 18:08 51.33135 6.84860 1239 ft 161 kts 232°
2026-05-04 18:08 51.32468 6.83463 1029 ft 151 kts 232°
2026-05-04 18:09 51.31278 6.80972 652 ft 133 kts 231°
2026-05-04 18:09 51.30191 6.78684 330 ft 130 kts 231°
2026-05-04 18:10 51.29633 6.77529 146 ft 129 kts 231°
2026-05-04 18:10 51.29140 6.76493 127 ft 97 kts 233°
2026-05-04 18:10 51.28833 6.75855 124 ft 45 kts 226°
2026-05-04 18:10 51.28680 6.75695 121 ft 18 kts 198°
2026-05-04 18:11 51.28572 6.75686 120 ft 13 kts 169°
2026-05-04 18:11 51.28489 6.75746 120 ft 13 kts 140°
2026-05-04 18:11 51.28411 6.75840 120 ft 14 kts 144°
2026-05-04 18:11 51.28328 6.75939 120 ft 15 kts 142°
2026-05-04 18:12 51.28260 6.76018 119 ft 6 kts 147°
2026-05-04 18:12 51.28222 6.76056 119 ft 2 kts 148°
2026-05-04 18:12 51.28217 6.76061 119 ft 0 kts 148°
2026-05-04 18:13 51.28216 6.76062 119 ft 0 kts 148°
2026-05-04 18:13 51.28215 6.76063 119 ft 0 kts 148°
2026-05-04 18:14 51.28200 6.76084 119 ft 4 kts 128°
2026-05-04 18:14 51.28189 6.76133 120 ft 4 kts 86°
2026-05-04 18:14 51.28205 6.76180 121 ft 5 kts 54°
2026-05-04 18:15 51.28247 6.76269 122 ft 5 kts 52°
2026-05-04 18:15 51.28308 6.76398 122 ft 0 kts 52°
2026-05-04 18:16 51.28308 6.76399 122 ft 0 kts 52°
2026-05-04 18:16 51.28316 6.76416 122 ft 3 kts 53°
2026-05-04 18:17 51.28315 6.76478 123 ft 2 kts 120°
2026-05-04 18:17 51.28301 6.76515 124 ft 6 kts 118°
2026-05-04 18:17 51.28338 6.76649 126 ft 7 kts 54°
2026-05-04 18:18 51.28354 6.76736 126 ft 9 kts 110°
2026-05-04 18:18 51.28305 6.76807 128 ft 9 kts 142°
2026-05-04 18:18 51.28252 6.76852 130 ft 8 kts 180°
2026-05-04 18:18 51.28205 6.76843 132 ft 5 kts 194°
2026-05-04 18:19 51.28204 6.76759 131 ft 2 kts 274°
2026-05-04 18:19 51.28205 6.76744 131 ft 1 kts 275°
2026-05-04 18:19 51.28205 6.76741 131 ft 0 kts 275°